Notices

What's New in latest Release from April 7th, 2021:

- Updated Glossary, including Speed of Maximum Gust, and Total Hourly Precipitation

- Updated national and regional climate services offices contacts and prices information

- Addition of station inventory lists for 1981-2010, 1971-2000, and 1961-1990 Normals.

If you haven't already, please take our survey and provide feedback about our website: https://eccc.sondage-survey.ca/f/LanguageSelection.aspx?s=442ca660-fcf1-47c0-95a9-59707d6fd709

Hourly Data Report for April 14, 2012

MIRAMICHI RCS
NEW BRUNSWICK

47°00'34.000" N
65°27'54.000" W
33.00 m
8100989
71744
ACQ

Download Data

Hourly Data (April 2012)
Hourly Data Report for April 14, 2012
TIME
LST
Temp Definition
°C
Dew Point Definition
°C
Rel Hum Definition
%
Precip. Amount Definition
mm

Wind Dir Definition
10's deg

Wind Spd Definition
km/h
Visibility Definition
km
Stn Press Definition
kPa
Hmdx Definition


Wind Chill Definition


Weather Definition


00:00 -1.3 -3.9 82   25 4   100.72   -3 LegendNANA
01:00 -0.5 -3.1 83   27 6   100.68   -3 LegendNANA
02:00 0.4 -3.2 77   25 9   100.64     LegendNANA
03:00 -0.3 -3.8 77   26 9   100.65   -3 LegendNANA
04:00 -0.3 -5.4 68   26 7   100.65   -3 LegendNANA
05:00 0.7 -6.5 59   25 9   100.67     LegendNANA
06:00 0.8 -6.9 56   25 11   100.75     LegendNANA
07:00 2.5 -6.8 50   25 11   100.85     LegendNANA
08:00 5.6 -6.9 40   31 11   100.90     LegendNANA
09:00 8.2 -7.8 31   30 13   100.89     LegendNANA
10:00 9.7 -9.0 26   31 11   100.84     LegendNANA
11:00 10.2 -7.7 28   28 13   100.79     LegendNANA
12:00 11.0 -5.3 31   29 15   100.69     LegendNANA
13:00 13.4 -5.0 27   28 19   100.62     LegendNANA
14:00 13.1 -7.8 23   28 22   100.59     LegendNANA
15:00 15.0 -6.8 22   28 15   100.53     LegendNANA
16:00 14.8 -8.1 20   29 22   100.50     LegendNANA
17:00 14.8 -9.0 18   30 15   100.55     LegendNANA
18:00 13.8 -10.8 17   31 15   100.64     LegendNANA
19:00 11.6 -11.1 19   32 7   100.75     LegendNANA
20:00 9.5 -10.2 24   33 6   100.86     LegendNANA
21:00 4.6 -7.9 40   35 2   100.93     LegendNANA
22:00 2.2 -6.5 53     0   100.96     LegendNANA
23:00 1.0 -6.0 59     0   100.99     LegendNANA

Notes on Data Quality.

Legend

  • E = Estimated
  • M = Missing
  • NA = Not Available*
  • [empty] = Indicates an unobserved value
Date modified: